N440WF KEB-9Z3

Flight info

Callsign N440WF
Flight time 0h 47m
Altitude 8000
Route ODK
Aircraft C185/L-G/S

Departure

Time 2026-05-04 03:30
Airport Nanwalek Airport (KEB)

Arrival

Time 2026-05-04 04:18
Airport Kodiak /Lilly Lake/ Seaplane Base (9Z3)
Time Latitude Longitude Altitude Speed Heading
2026-05-04 03:27 59.35472 -151.92243 55 ft 0 kts 11°
2026-05-04 03:29 59.35473 -151.92243 55 ft 1 kts 10°
2026-05-04 03:29 59.35463 -151.92237 55 ft 1 kts 142°
2026-05-04 03:30 59.35432 -151.92235 53 ft 7 kts 206°
2026-05-04 03:30 59.35300 -151.92387 51 ft 58 kts 210°
2026-05-04 03:30 59.34820 -151.93146 395 ft 94 kts 262°
2026-05-04 03:30 59.35188 -151.94517 640 ft 122 kts 272°
2026-05-04 03:31 59.34927 -151.95905 667 ft 121 kts 246°
2026-05-04 03:31 59.34587 -151.97257 748 ft 107 kts 240°
2026-05-04 03:31 59.34054 -151.98154 850 ft 108 kts 197°
2026-05-04 03:31 59.33185 -151.98410 1115 ft 142 kts 186°
2026-05-04 03:32 59.32163 -151.98673 1378 ft 151 kts 187°
2026-05-04 03:32 59.31126 -151.98943 1625 ft 149 kts 187°
2026-05-04 03:32 59.30108 -151.99197 1871 ft 146 kts 186°
2026-05-04 03:32 59.29099 -151.99441 2118 ft 145 kts 186°
2026-05-04 03:33 59.28115 -151.99676 2363 ft 143 kts 186°
2026-05-04 03:33 59.27125 -151.99910 2612 ft 143 kts 186°
2026-05-04 03:33 59.26136 -152.00144 2863 ft 142 kts 186°
2026-05-04 03:33 59.25153 -152.00378 3113 ft 142 kts 186°
2026-05-04 03:34 59.24175 -152.00614 3367 ft 142 kts 186°
2026-05-04 03:34 59.23213 -152.00844 3613 ft 134 kts 186°
2026-05-04 03:34 59.22316 -152.01058 3858 ft 129 kts 186°
2026-05-04 03:34 59.21442 -152.01262 4108 ft 125 kts 186°
2026-05-04 03:35 59.20576 -152.01463 4356 ft 124 kts 186°
2026-05-04 03:35 59.19719 -152.01658 4612 ft 123 kts 186°
2026-05-04 03:35 59.18872 -152.01856 4864 ft 122 kts 186°
2026-05-04 03:35 59.18033 -152.02056 5114 ft 124 kts 186°
2026-05-04 03:36 59.17165 -152.02264 5367 ft 126 kts 186°
2026-05-04 03:36 59.16289 -152.02472 5619 ft 127 kts 186°
2026-05-04 03:36 59.15413 -152.02680 5876 ft 126 kts 186°
2026-05-04 03:36 59.14544 -152.02887 6120 ft 125 kts 186°
2026-05-04 03:37 59.13695 -152.03086 6367 ft 124 kts 186°
2026-05-04 03:37 59.12836 -152.03288 6618 ft 124 kts 186°
2026-05-04 03:37 59.11984 -152.03489 6869 ft 122 kts 186°
2026-05-04 03:37 59.11142 -152.03686 7119 ft 121 kts 186°
2026-05-04 03:38 59.10307 -152.03882 7370 ft 120 kts 186°
2026-05-04 03:38 59.09480 -152.04077 7621 ft 119 kts 186°
2026-05-04 03:38 59.08661 -152.04270 7872 ft 118 kts 186°
2026-05-04 03:38 59.07811 -152.04470 7937 ft 129 kts 186°
2026-05-04 03:39 59.06908 -152.04684 7971 ft 134 kts 186°
2026-05-04 03:39 59.05968 -152.04908 7987 ft 138 kts 186°
2026-05-04 03:39 59.05009 -152.05136 7993 ft 139 kts 186°
2026-05-04 03:39 59.04043 -152.05363 7996 ft 140 kts 186°
2026-05-04 03:40 59.03084 -152.05586 7997 ft 140 kts 186°
2026-05-04 03:40 59.02116 -152.05816 7998 ft 140 kts 186°
2026-05-04 03:40 59.01143 -152.06044 7999 ft 140 kts 186°
2026-05-04 03:40 59.00179 -152.06270 7999 ft 139 kts 187°
2026-05-04 03:41 58.99215 -152.06498 7999 ft 140 kts 187°
2026-05-04 03:41 58.98249 -152.06724 8000 ft 139 kts 187°
2026-05-04 03:41 58.97286 -152.06949 8000 ft 139 kts 187°
2026-05-04 03:41 58.96334 -152.07173 8000 ft 139 kts 187°
2026-05-04 03:42 58.95375 -152.07398 8000 ft 139 kts 187°
2026-05-04 03:42 58.94414 -152.07624 8000 ft 138 kts 187°
2026-05-04 03:42 58.93456 -152.07848 7999 ft 138 kts 187°
2026-05-04 03:42 58.92502 -152.08070 8000 ft 138 kts 187°
2026-05-04 03:43 58.91562 -152.08287 7998 ft 137 kts 187°
2026-05-04 03:43 58.90610 -152.08512 7994 ft 137 kts 187°
2026-05-04 03:43 58.89660 -152.08735 7993 ft 138 kts 187°
2026-05-04 03:43 58.88704 -152.08961 7992 ft 138 kts 187°
2026-05-04 03:44 58.87753 -152.09181 7991 ft 137 kts 187°
2026-05-04 03:44 58.86806 -152.09400 7991 ft 137 kts 187°
2026-05-04 03:44 58.85873 -152.09616 7991 ft 136 kts 187°
2026-05-04 03:44 58.84934 -152.09839 7991 ft 136 kts 187°
2026-05-04 03:45 58.83993 -152.10065 7991 ft 136 kts 187°
2026-05-04 03:45 58.83056 -152.10290 7991 ft 135 kts 187°
2026-05-04 03:45 58.82120 -152.10515 7990 ft 135 kts 187°
2026-05-04 03:45 58.81187 -152.10740 7991 ft 135 kts 187°
2026-05-04 03:46 58.80251 -152.10961 7991 ft 135 kts 187°
2026-05-04 03:46 58.79330 -152.11174 7991 ft 135 kts 187°
2026-05-04 03:46 58.78397 -152.11393 7992 ft 135 kts 187°
2026-05-04 03:46 58.77464 -152.11606 7991 ft 134 kts 187°
2026-05-04 03:47 58.76537 -152.11821 7991 ft 135 kts 187°
2026-05-04 03:47 58.75607 -152.12039 7986 ft 135 kts 187°
2026-05-04 03:47 58.74685 -152.12249 7985 ft 134 kts 187°
2026-05-04 03:47 58.73761 -152.12461 7985 ft 134 kts 187°
2026-05-04 03:48 58.72838 -152.12674 7989 ft 133 kts 187°
2026-05-04 03:48 58.71917 -152.12888 7995 ft 133 kts 187°
2026-05-04 03:48 58.70999 -152.13100 7997 ft 133 kts 187°
2026-05-04 03:48 58.70080 -152.13308 7998 ft 133 kts 187°
2026-05-04 03:49 58.69162 -152.13513 8000 ft 132 kts 187°
2026-05-04 03:49 58.68248 -152.13724 7999 ft 132 kts 188°
2026-05-04 03:49 58.67344 -152.13931 8000 ft 132 kts 187°
2026-05-04 03:49 58.66429 -152.14137 7999 ft 132 kts 188°
2026-05-04 03:50 58.65518 -152.14346 8000 ft 131 kts 188°
2026-05-04 03:50 58.64612 -152.14559 7999 ft 131 kts 188°
2026-05-04 03:50 58.63708 -152.14771 8000 ft 130 kts 188°
2026-05-04 03:50 58.62803 -152.14982 7996 ft 131 kts 188°
2026-05-04 03:51 58.61904 -152.15189 7994 ft 132 kts 188°
2026-05-04 03:51 58.60993 -152.15397 7993 ft 132 kts 188°
2026-05-04 03:51 58.60086 -152.15605 7993 ft 131 kts 188°
2026-05-04 03:51 58.59488 -152.15742 7991 ft 130 kts 188°
2026-05-04 03:52 58.58587 -152.15946 7993 ft 130 kts 188°
2026-05-04 03:52 58.57688 -152.16148 7991 ft 130 kts 188°
2026-05-04 03:52 58.56787 -152.16353 7990 ft 130 kts 188°
2026-05-04 03:52 58.55883 -152.16561 7989 ft 131 kts 188°
2026-05-04 03:53 58.54978 -152.16769 7984 ft 130 kts 188°
2026-05-04 03:53 58.54081 -152.16972 7982 ft 130 kts 188°
2026-05-04 03:53 58.53187 -152.17177 7981 ft 129 kts 188°
2026-05-04 03:53 58.52301 -152.17378 7980 ft 130 kts 188°
2026-05-04 03:54 58.51403 -152.17583 7983 ft 130 kts 188°
2026-05-04 03:54 58.50509 -152.17786 7986 ft 129 kts 188°
2026-05-04 03:54 58.49616 -152.17990 7985 ft 129 kts 188°
2026-05-04 03:54 58.48740 -152.18193 7984 ft 128 kts 188°
2026-05-04 03:55 58.47853 -152.18393 7993 ft 128 kts 188°
2026-05-04 03:55 58.46959 -152.18595 7876 ft 135 kts 188°
2026-05-04 03:55 58.45993 -152.18817 7475 ft 148 kts 188°
2026-05-04 03:55 58.44948 -152.19061 7186 ft 149 kts 188°
2026-05-04 03:56 58.43925 -152.19296 6933 ft 148 kts 188°
2026-05-04 03:56 58.42901 -152.19532 6682 ft 148 kts 188°
2026-05-04 03:56 58.41890 -152.19763 6432 ft 148 kts 188°
2026-05-04 03:56 58.40866 -152.19995 6182 ft 148 kts 187°
2026-05-04 03:57 58.39835 -152.20227 5931 ft 149 kts 188°
2026-05-04 03:57 58.38804 -152.20460 5678 ft 149 kts 187°
2026-05-04 03:57 58.37768 -152.20695 5422 ft 150 kts 187°
2026-05-04 03:57 58.36724 -152.20931 5182 ft 152 kts 187°
2026-05-04 03:58 58.34623 -152.21406 4680 ft 154 kts 187°
2026-05-04 03:58 58.33555 -152.21650 4432 ft 154 kts 187°
2026-05-04 03:58 58.32483 -152.21891 4181 ft 155 kts 186°
2026-05-04 03:59 58.31408 -152.22132 3930 ft 156 kts 186°
2026-05-04 03:59 58.30326 -152.22377 3675 ft 157 kts 186°
2026-05-04 03:59 58.29237 -152.22624 3424 ft 158 kts 186°
2026-05-04 03:59 58.28156 -152.22870 3179 ft 159 kts 186°
2026-05-04 04:00 58.27057 -152.23123 2930 ft 159 kts 186°
2026-05-04 04:00 58.25953 -152.23372 2677 ft 160 kts 185°
2026-05-04 04:00 58.24841 -152.23619 2426 ft 161 kts 185°
2026-05-04 04:00 58.23723 -152.23861 2172 ft 161 kts 185°
2026-05-04 04:01 58.22604 -152.24092 1923 ft 162 kts 185°
2026-05-04 04:01 58.21496 -152.24326 1680 ft 162 kts 185°
2026-05-04 04:01 58.20375 -152.24570 1424 ft 162 kts 185°
2026-05-04 04:01 58.19251 -152.24819 1170 ft 162 kts 185°
2026-05-04 04:02 58.18129 -152.25069 922 ft 163 kts 185°
2026-05-04 04:02 58.17022 -152.25355 826 ft 155 kts 188°
2026-05-04 04:02 58.15964 -152.25728 741 ft 155 kts 189°
2026-05-04 04:02 58.14899 -152.26142 613 ft 156 kts 191°
2026-05-04 04:03 58.13849 -152.26586 545 ft 153 kts 191°
2026-05-04 04:03 58.12830 -152.26767 97 ft 168 kts 223°
2026-05-04 04:03 58.12516 -152.27404 1043 ft 56 kts 145°
2026-05-04 04:03 58.12110 -152.28281 308 ft 145 kts 320°
2026-05-04 04:04 58.12825 -152.29496 500 ft 106 kts 33°
2026-05-04 04:04 58.13048 -152.29858 430 ft 70 kts 272°
2026-05-04 04:04 58.13307 -152.30979 508 ft 102 kts 245°
2026-05-04 04:04 58.12708 -152.31965 522 ft 134 kts 225°
2026-05-04 04:05 58.12512 -152.33559 646 ft 145 kts 314°
2026-05-04 04:05 58.12970 -152.34771 588 ft 90 kts 174°
2026-05-04 04:05 58.12236 -152.34784 433 ft 117 kts 179°
2026-05-04 04:05 58.11393 -152.34806 464 ft 123 kts 179°
2026-05-04 04:06 58.10515 -152.34812 482 ft 132 kts 178°
2026-05-04 04:06 58.09570 -152.34789 492 ft 138 kts 178°
2026-05-04 04:06 58.08599 -152.34761 494 ft 142 kts 178°
2026-05-04 04:06 58.07616 -152.34737 489 ft 143 kts 178°
2026-05-04 04:07 58.06623 -152.34711 483 ft 143 kts 178°
2026-05-04 04:07 58.05630 -152.34689 484 ft 142 kts 178°
2026-05-04 04:07 58.04641 -152.34672 482 ft 141 kts 178°
2026-05-04 04:07 58.03655 -152.34647 479 ft 141 kts 178°
2026-05-04 04:08 58.02673 -152.34620 476 ft 140 kts 178°
2026-05-04 04:08 58.01703 -152.34594 473 ft 141 kts 178°
2026-05-04 04:08 58.00720 -152.34570 472 ft 141 kts 178°
2026-05-04 04:08 57.99736 -152.34548 472 ft 141 kts 178°
2026-05-04 04:09 57.98757 -152.34526 473 ft 141 kts 178°
2026-05-04 04:09 57.97789 -152.34505 473 ft 140 kts 178°
2026-05-04 04:09 57.96812 -152.34482 472 ft 140 kts 178°
2026-05-04 04:09 57.95837 -152.34457 472 ft 140 kts 178°
2026-05-04 04:10 57.94858 -152.34432 471 ft 140 kts 178°
2026-05-04 04:10 57.93887 -152.34408 472 ft 139 kts 178°
2026-05-04 04:10 57.92915 -152.34384 472 ft 140 kts 178°
2026-05-04 04:10 57.91939 -152.34362 472 ft 140 kts 178°
2026-05-04 04:11 57.90973 -152.34335 472 ft 141 kts 178°
2026-05-04 04:11 57.89994 -152.34314 477 ft 141 kts 178°
2026-05-04 04:11 57.89010 -152.34294 475 ft 141 kts 178°
2026-05-04 04:11 57.88010 -152.34271 471 ft 145 kts 178°
2026-05-04 04:12 57.86996 -152.34246 471 ft 146 kts 178°
2026-05-04 04:12 57.85988 -152.34221 472 ft 147 kts 178°
2026-05-04 04:12 57.84966 -152.34196 471 ft 147 kts 178°
2026-05-04 04:12 57.83941 -152.34172 471 ft 147 kts 178°
2026-05-04 04:13 57.82920 -152.34147 472 ft 147 kts 178°
2026-05-04 04:13 57.81895 -152.34123 472 ft 147 kts 178°
2026-05-04 04:13 57.80873 -152.34099 473 ft 147 kts 178°
2026-05-04 04:13 57.79850 -152.34076 472 ft 147 kts 178°
2026-05-04 04:14 57.78827 -152.34060 471 ft 147 kts 181°
2026-05-04 04:14 57.77854 -152.34611 474 ft 148 kts 212°
2026-05-04 04:14 57.77191 -152.36041 473 ft 149 kts 245°
2026-05-04 04:14 57.76866 -152.37890 473 ft 149 kts 253°
2026-05-04 04:15 57.76960 -152.39689 360 ft 152 kts 326°
2026-05-04 04:15 57.77824 -152.40095 262 ft 110 kts 352°
2026-05-04 04:15 57.78381 -152.40186 429 ft 67 kts
2026-05-04 04:15 57.78888 -152.40002 379 ft 80 kts 33°
2026-05-04 04:16 57.79335 -152.39369 353 ft 84 kts 38°
2026-05-04 04:16 57.79793 -152.38781 309 ft 82 kts 41°
2026-05-04 04:16 57.80143 -152.38016 295 ft 75 kts 58°
2026-05-04 04:16 57.80521 -152.37324 233 ft 76 kts 53°
2026-05-04 04:17 57.80810 -152.37275 376 ft 76 kts 261°
2026-05-04 04:17 57.80729 -152.38248 447 ft 83 kts 250°
2026-05-04 04:17 57.80393 -152.38839 432 ft 65 kts 159°
2026-05-04 04:17 57.80253 -152.38146 213 ft 61 kts 70°
2026-05-04 04:18 57.80500 -152.37615 138 ft 43 kts 29°
2026-05-04 04:18 57.80660 -152.37252 183 ft 48 kts 94°
2026-05-04 04:18 57.80830 -152.37159 370 ft 56 kts 263°
2026-05-04 04:18 57.80714 -152.37881 384 ft 58 kts 261°
2026-05-04 04:19 57.80579 -152.38548 346 ft 56 kts 227°
2026-05-04 04:19 57.80249 -152.38700 291 ft 59 kts 129°
2026-05-04 04:19 57.80304 -152.38019 155 ft 56 kts 49°
2026-05-04 04:19 57.80516 -152.37579 139 ft 23 kts 42°
2026-05-04 04:20 57.80562 -152.37495 141 ft 9 kts 35°
2026-05-04 04:20 57.80627 -152.37401 148 ft 14 kts 40°
2026-05-04 04:20 57.80702 -152.37245 156 ft 19 kts 53°
2026-05-04 04:20 57.80782 -152.37158 161 ft 8 kts 62°
2026-05-04 04:21 57.80797 -152.37128 162 ft 9 kts 32°
2026-05-04 04:21 57.80807 -152.37105 163 ft 4 kts 46°
2026-05-04 04:21 57.80829 -152.37063 163 ft 3 kts 44°
2026-05-04 04:21 57.80864 -152.36996 163 ft 10 kts 56°
2026-05-04 04:22 57.80841 -152.36985 165 ft 3 kts 272°
2026-05-04 04:22 57.80832 -152.36997 165 ft 4 kts 192°
2026-05-04 04:22 57.80808 -152.37025 165 ft 5 kts 223°
2026-05-04 04:22 57.80762 -152.37107 163 ft 8 kts 181°
2026-05-04 04:23 57.80737 -152.37185 159 ft 5 kts 276°
2026-05-04 04:23 57.80740 -152.37220 158 ft 7 kts 175°
2026-05-04 04:23 57.80737 -152.37219 158 ft 0 kts 125°